QPF
0.04 0.02 0.02 0.02 0.01 0.01 0.01 0.03 0.04 0.03 0.03 0.03 0.02 0.04 0.03 0.01 0.02 0.03 0.04 0.04 0.04 0.06 0.09 0.11 0.10 0.12 0.10 0.11 0.10 0.08 0.05 0.05 0.07 0.08 0.09 0.09 0.09 0.07 0.07 0.08 0.07 0.06 0.05
0.03 0.02 0.02 0.01 0.01 0.02 0.02 0.05 0.06 0.05 0.04 0.03 0.04 0.05 0.04 0.03 0.03 0.03 0.02 0.03 0.06 0.07 0.09 0.12 0.12 0.12 0.10 0.09 0.09 0.08 0.04 0.04 0.05 0.07 0.08 0.11 0.13 0.10 0.08 0.07 0.08 0.09 0.09
0.03 0.02 0.02 0.01 0.02 0.03 0.03 0.05 0.07 0.07 0.06 0.06 0.06 0.05 0.04 0.04 0.03 0.03 0.01 0.02 0.05 0.08 0.10 0.12 0.12 0.11 0.09 0.08 0.09 0.09 0.06 0.04 0.04 0.04 0.06 0.08 0.10 0.12 0.12 0.13 0.13 0.10 0.08
0.05 0.03 0.03 0.02 0.02 0.03 0.04 0.04 0.05 0.06 0.05 0.05 0.05 0.03 0.03 0.04 0.03 0.02 0.02 0.02 0.03 0.05 0.07 0.10 0.10 0.07 0.06 0.06 0.07 0.07 0.07 0.05 0.04 0.04 0.05 0.07 0.08 0.10 0.12 0.14 0.13 0.10 0.08
0.05 0.03 0.03 0.04 0.04 0.04 0.04 0.06 0.06 0.06 0.05 0.04 0.03 0.02 0.02 0.02 0.03 0.03 0.03 0.02 0.02 0.02 0.03 0.05 0.06 0.05 0.04 0.04 0.05 0.06 0.07 0.07 0.05 0.06 0.07 0.08 0.10 0.10 0.10 0.09 0.08 0.08 0.10
0.04 0.04 0.04 0.05 0.05 0.06 0.07 0.08 0.07 0.07 0.05 0.04 0.03 0.02 0.01 0.02 0.02 0.02 0.03 0.02 0.02 0.03 0.03 0.02 0.03 0.03 0.04 0.04 0.05 0.07 0.09 0.10 0.08 0.09 0.10 0.11 0.12 0.10 0.07 0.06 0.07 0.09 0.11
0.04 0.04 0.06 0.06 0.05 0.07 0.08 0.08 0.07 0.07 0.06 0.04 0.03 0.02 0.02 0.02 0.01 0.02 0.02 0.03 0.04 0.05 0.03 0.02 0.01 0.01 0.03 0.05 0.07 0.08 0.07 0.08 0.07 0.08 0.08 0.08 0.07 0.07 0.06 0.05 0.04 0.05 0.05
0.02 0.04 0.05 0.07 0.06 0.07 0.09 0.08 0.06 0.06 0.05 0.03 0.02 0.03 0.02 0.02 0.03 0.02 0.02 0.03 0.04 0.03 0.02 0.02 0.02 0.02 0.02 0.02 0.03 0.06 0.08 0.08 0.09 0.07 0.05 0.07 0.07 0.08 0.08 0.06 0.05 0.05 0.05
0.02 0.03 0.05 0.09 0.09 0.07 0.07 0.07 0.07 0.06 0.03 0.02 0.02 0.02 0.02 0.01 0.02 0.01 0.01 0.01 0.01 0.01 0.01 0.02 0.03 0.02 0.02 0.01 0.01 0.03 0.06 0.08 0.09 0.10 0.09 0.08 0.08 0.06 0.06 0.06 0.07 0.07 0.05
0.02 0.03 0.05 0.09 0.12 0.09 0.07 0.06 0.07 0.05 0.03 0.02 0.03 0.03 0.02 0.01 0.02 0.02 0.02 0.01 0.02 0.02 0.01 0.01 0.01 0.01 0.01 0.01 0.01 0.02 0.03 0.03 0.05 0.08 0.12 0.12 0.11 0.09 0.08 0.08 0.10 0.10 0.09
0.02 0.02 0.04 0.09 0.12 0.11 0.08 0.06 0.06 0.04 0.02 0.02 0.02 0.02 0.02 0.02 0.03 0.04 0.03 0.02 0.01 0.02 0.02 0.01 0.01 0.01 0.01 0.02 0.02 0.03 0.03 0.02 0.03 0.05 0.08 0.09 0.11 0.11 0.12 0.14 0.15 0.15 0.14
0.01 0.02 0.03 0.05 0.09 0.11 0.09 0.06 0.05 0.04 0.02 0.01 0.02 0.02 0.02 0.03 0.03 0.04 0.03 0.02 0.02 0.03 0.03 0.03 0.02 0.02 0.02 0.03 0.03 0.03 0.03 0.02 0.02 0.04 0.05 0.07 0.09 0.11 0.14 0.14 0.12 0.11 0.11
0.02 0.03 0.03 0.05 0.08 0.11 0.11 0.08 0.07 0.06 0.04 0.03 0.03 0.03 0.04 0.03 0.03 0.03 0.03 0.02 0.03 0.03 0.03 0.03 0.03 0.03 0.02 0.02 0.03 0.03 0.02 0.02 0.02 0.03 0.04 0.06 0.08 0.11 0.13 0.12 0.09 0.07 0.07
0.04 0.04 0.04 0.05 0.05 0.07 0.07 0.07 0.05 0.05 0.04 0.04 0.03 0.04 0.04 0.02 0.03 0.03 0.04 0.05 0.05 0.04 0.03 0.03 0.03 0.03 0.03 0.02 0.02 0.01 0.01 0.01 0.02 0.02 0.02 0.03 0.05 0.08 0.10 0.10 0.07 0.06 0.05
0.05 0.05 0.05 0.06 0.05 0.05 0.05 0.05 0.04 0.04 0.03 0.03 0.03 0.03 0.02 0.02 0.03 0.03 0.04 0.05 0.05 0.04 0.04 0.03 0.03 0.03 0.03 0.02 0.01 0.00 0.00 0.01 0.01 0.01 0.01 0.02 0.03 0.04 0.04 0.04 0.03 0.03 0.03
0.04 0.03 0.03 0.05 0.05 0.05 0.04 0.05 0.05 0.07 0.06 0.04 0.03 0.02 0.02 0.01 0.02 0.03 0.03 0.03 0.03 0.03 0.04 0.03 0.02 0.03 0.02 0.01 0.01 0.01 0.01 0.01 0.02 0.02 0.02 0.03 0.04 0.04 0.03 0.03 0.01 0.01 0.02
0.02 0.02 0.02 0.03 0.04 0.05 0.05 0.06 0.07 0.08 0.07 0.05 0.04 0.03 0.02 0.02 0.02 0.02 0.02 0.02 0.02 0.02 0.03 0.02 0.02 0.02 0.01 0.01 0.01 0.01 0.01 0.01 0.01 0.02 0.02 0.02 0.02 0.02 0.01 0.01 0.01 0.01 0.01
0.02 0.02 0.02 0.03 0.04 0.05 0.06 0.06 0.07 0.07 0.05 0.04 0.03 0.03 0.03 0.03 0.03 0.02 0.02 0.02 0.03 0.03 0.02 0.02 0.03 0.01 0.00 0.01 0.01 0.02 0.02 0.02 0.01 0.02 0.02 0.02 0.02 0.01 0.01 0.01 0.01 0.01 0.01
0.03 0.03 0.03 0.03 0.03 0.04 0.06 0.07 0.07 0.06 0.04 0.04 0.04 0.04 0.04 0.03 0.03 0.04 0.04 0.02 0.02 0.02 0.02 0.02 0.01 0.00 0.00 0.01 0.01 0.02 0.02 0.02 0.03 0.03 0.03 0.02 0.02 0.01 0.01 0.01 0.01 0.01 0.02
0.04 0.04 0.04 0.03 0.03 0.04 0.06 0.06 0.05 0.04 0.05 0.06 0.07 0.06 0.05 0.03 0.03 0.03 0.02 0.02 0.03 0.02 0.02 0.01 0.01 0.00 0.00 0.02 0.02 0.01 0.01 0.02 0.02 0.02 0.02 0.02 0.02 0.02 0.01 0.01 0.01 0.01 0.02
0.07 0.06 0.05 0.05 0.04 0.04 0.04 0.02 0.02 0.03 0.04 0.05 0.05 0.04 0.03 0.02 0.02 0.02 0.01 0.03 0.03 0.02 0.01 0.01 0.01 0.01 0.01 0.01 0.01 0.01 0.01 0.01 0.01 0.02 0.02 0.02 0.02 0.02 0.01 0.01 0.01 0.02 0.02
0.05 0.06 0.06 0.06 0.05 0.04 0.04 0.03 0.02 0.02 0.02 0.03 0.03 0.03 0.02 0.02 0.01 0.01 0.01 0.02 0.02 0.01 0.01 0.01 0.01 0.01 0.01 0.01 0.01 0.01 0.01 0.01 0.01 0.01 0.02 0.02 0.02 0.02 0.01 0.01 0.01 0.02 0.02
0.06 0.06 0.07 0.07 0.06 0.06 0.05 0.04 0.04 0.04 0.03 0.03 0.03 0.02 0.01 0.01 0.01 0.01 0.01 0.01 0.01 0.01 0.00 0.00 0.00 0.01 0.01 0.01 0.01 0.01 0.01 0.01 0.00 0.01 0.01 0.01 0.01 0.01 0.01 0.01 0.01 0.01 0.01
0.05 0.08 0.08 0.08 0.07 0.07 0.07 0.05 0.05 0.04 0.04 0.03 0.03 0.02 0.01 0.01 0.00 0.00 0.00 0.01 0.01 0.00 0.00 0.01 0.01 0.01 0.01 0.01 0.01 0.01 0.01 0.01 0.01 0.00 0.01 0.01 0.01 0.01 0.01 0.01 0.01 0.01 0.01
0.07 0.07 0.07 0.07 0.07 0.07 0.07 0.07 0.06 0.05 0.05 0.03 0.02 0.02 0.01 0.01 0.01 0.01 0.01 0.01 0.01 0.01 0.01 0.01 0.01 0.01 0.01 0.02 0.02 0.02 0.01 0.01 0.01 0.01 0.01 0.01 0.01 0.01 0.01 0.02 0.02 0.02 0.01
0.03 0.02 0.02 0.04 0.06 0.07 0.09 0.09 0.07 0.05 0.04 0.04 0.03 0.02 0.02 0.02 0.02 0.02 0.02 0.02 0.02 0.02 0.02 0.02 0.02 0.02 0.01 0.02 0.02 0.02 0.02 0.02 0.02 0.02 0.01 0.02 0.02 0.02 0.02 0.02 0.02 0.02 0.02
MSLP
1015.86 1016.27 1016.66 1017.00 1017.30 1017.56 1017.79 1017.99 1018.16 1018.30 1018.42 1018.55 1018.68 1018.85 1019.05 1019.29 1019.57 1019.87 1020.18 1020.48 1020.75 1020.97 1021.14 1021.26 1021.33 1021.37 1021.39 1021.39 1021.38 1021.36 1021.34 1021.33 1021.33 1021.36 1021.41 1021.51 1021.64 1021.79 1021.95 1022.10 1022.22 1022.30 1022.33
1015.65 1016.07 1016.47 1016.86 1017.22 1017.55 1017.85 1018.11 1018.33 1018.52 1018.67 1018.82 1018.96 1019.12 1019.31 1019.53 1019.78 1020.05 1020.33 1020.60 1020.84 1021.06 1021.24 1021.38 1021.48 1021.56 1021.61 1021.64 1021.66 1021.66 1021.65 1021.65 1021.65 1021.69 1021.75 1021.86 1021.99 1022.15 1022.30 1022.44 1022.53 1022.58 1022.58
1015.39 1015.80 1016.23 1016.66 1017.10 1017.51 1017.89 1018.22 1018.51 1018.75 1018.95 1019.12 1019.28 1019.43 1019.61 1019.80 1020.02 1020.25 1020.48 1020.71 1020.92 1021.11 1021.28 1021.43 1021.55 1021.66 1021.75 1021.82 1021.87 1021.90 1021.93 1021.95 1021.98 1022.02 1022.10 1022.22 1022.35 1022.51 1022.66 1022.78 1022.86 1022.89 1022.86
1015.09 1015.49 1015.93 1016.41 1016.90 1017.39 1017.85 1018.27 1018.63 1018.93 1019.18 1019.38 1019.56 1019.72 1019.89 1020.07 1020.26 1020.45 1020.64 1020.83 1021.00 1021.16 1021.31 1021.45 1021.58 1021.71 1021.83 1021.93 1022.02 1022.10 1022.16 1022.21 1022.26 1022.33 1022.42 1022.54 1022.67 1022.82 1022.96 1023.07 1023.14 1023.16 1023.13
1014.74 1015.12 1015.57 1016.08 1016.62 1017.18 1017.71 1018.20 1018.62 1018.98 1019.27 1019.52 1019.72 1019.92 1020.10 1020.28 1020.47 1020.64 1020.81 1020.96 1021.10 1021.23 1021.35 1021.47 1021.59 1021.73 1021.86 1022.00 1022.13 1022.24 1022.34 1022.42 1022.50 1022.58 1022.68 1022.79 1022.92 1023.05 1023.17 1023.27 1023.34 1023.35 1023.32
1014.35 1014.71 1015.15 1015.67 1016.25 1016.85 1017.43 1017.97 1018.44 1018.85 1019.19 1019.48 1019.73 1019.97 1020.19 1020.41 1020.62 1020.81 1020.97 1021.11 1021.23 1021.33 1021.42 1021.51 1021.62 1021.75 1021.89 1022.04 1022.19 1022.34 1022.46 1022.58 1022.67 1022.77 1022.86 1022.96 1023.07 1023.18 1023.29 1023.37 1023.42 1023.44 1023.42
1013.92 1014.24 1014.67 1015.19 1015.78 1016.40 1017.01 1017.58 1018.09 1018.53 1018.92 1019.26 1019.57 1019.86 1020.15 1020.43 1020.69 1020.92 1021.12 1021.27 1021.38 1021.46 1021.53 1021.60 1021.68 1021.78 1021.92 1022.07 1022.23 1022.39 1022.54 1022.67 1022.78 1022.88 1022.97 1023.06 1023.14 1023.23 1023.31 1023.37 1023.42 1023.43 1023.42
1013.43 1013.73 1014.14 1014.65 1015.24 1015.86 1016.47 1017.06 1017.59 1018.06 1018.49 1018.88 1019.25 1019.62 1019.98 1020.34 1020.67 1020.97 1021.22 1021.40 1021.53 1021.61 1021.66 1021.70 1021.75 1021.83 1021.94 1022.08 1022.24 1022.41 1022.56 1022.71 1022.83 1022.94 1023.02 1023.09 1023.15 1023.21 1023.26 1023.30 1023.33 1023.34 1023.34
1012.89 1013.17 1013.57 1014.07 1014.65 1015.26 1015.88 1016.46 1017.01 1017.50 1017.96 1018.40 1018.83 1019.27 1019.72 1020.15 1020.57 1020.94 1021.24 1021.47 1021.62 1021.70 1021.75 1021.77 1021.80 1021.85 1021.93 1022.05 1022.20 1022.37 1022.54 1022.69 1022.82 1022.93 1023.02 1023.08 1023.12 1023.16 1023.19 1023.21 1023.22 1023.21 1023.20
1012.31 1012.58 1012.98 1013.47 1014.04 1014.65 1015.27 1015.86 1016.41 1016.93 1017.42 1017.90 1018.38 1018.88 1019.38 1019.89 1020.37 1020.79 1021.15 1021.42 1021.60 1021.70 1021.75 1021.76 1021.77 1021.80 1021.86 1021.97 1022.11 1022.27 1022.44 1022.61 1022.75 1022.87 1022.97 1023.03 1023.07 1023.10 1023.11 1023.10 1023.10 1023.07 1023.05
1011.70 1011.98 1012.37 1012.87 1013.45 1014.06 1014.69 1015.29 1015.86 1016.40 1016.91 1017.42 1017.94 1018.47 1019.02 1019.56 1020.07 1020.54 1020.93 1021.23 1021.44 1021.56 1021.62 1021.63 1021.64 1021.66 1021.71 1021.81 1021.94 1022.10 1022.27 1022.45 1022.62 1022.76 1022.87 1022.95 1023.00 1023.03 1023.04 1023.02 1023.00 1022.96 1022.91
1011.06 1011.35 1011.77 1012.28 1012.87 1013.50 1014.14 1014.77 1015.36 1015.93 1016.47 1017.00 1017.53 1018.07 1018.63 1019.17 1019.70 1020.17 1020.57 1020.89 1021.12 1021.26 1021.34 1021.38 1021.39 1021.42 1021.47 1021.57 1021.70 1021.86 1022.04 1022.23 1022.42 1022.58 1022.73 1022.83 1022.91 1022.95 1022.97 1022.96 1022.93 1022.88 1022.82
1010.42 1010.72 1011.15 1011.68 1012.29 1012.95 1013.62 1014.27 1014.90 1015.50 1016.06 1016.61 1017.15 1017.69 1018.22 1018.75 1019.25 1019.71 1020.10 1020.42 1020.67 1020.84 1020.95 1021.02 1021.06 1021.11 1021.18 1021.27 1021.41 1021.57 1021.76 1021.96 1022.16 1022.35 1022.52 1022.66 1022.77 1022.85 1022.89 1022.90 1022.88 1022.83 1022.76
1009.77 1010.09 1010.53 1011.07 1011.70 1012.38 1013.08 1013.77 1014.44 1015.07 1015.67 1016.23 1016.77 1017.30 1017.80 1018.30 1018.76 1019.19 1019.57 1019.90 1020.15 1020.35 1020.50 1020.61 1020.70 1020.78 1020.87 1020.98 1021.11 1021.27 1021.45 1021.65 1021.86 1022.06 1022.26 1022.43 1022.58 1022.69 1022.77 1022.81 1022.81 1022.79 1022.73
1009.14 1009.45 1009.89 1010.43 1011.07 1011.76 1012.49 1013.22 1013.93 1014.60 1015.23 1015.82 1016.36 1016.88 1017.37 1017.83 1018.27 1018.67 1019.04 1019.36 1019.64 1019.88 1020.07 1020.23 1020.37 1020.49 1020.60 1020.72 1020.85 1020.99 1021.16 1021.34 1021.54 1021.74 1021.94 1022.14 1022.31 1022.46 1022.58 1022.66 1022.71 1022.72 1022.70
1008.53 1008.82 1009.23 1009.76 1010.39 1011.09 1011.83 1012.58 1013.33 1014.04 1014.71 1015.33 1015.90 1016.42 1016.91 1017.36 1017.78 1018.18 1018.54 1018.89 1019.20 1019.47 1019.72 1019.94 1020.12 1020.27 1020.41 1020.54 1020.65 1020.78 1020.91 1021.06 1021.22 1021.40 1021.59 1021.79 1021.98 1022.15 1022.30 1022.43 1022.53 1022.59 1022.63
1007.93 1008.19 1008.57 1009.06 1009.66 1010.34 1011.08 1011.85 1012.62 1013.37 1014.09 1014.75 1015.36 1015.92 1016.42 1016.89 1017.33 1017.74 1018.12 1018.49 1018.84 1019.17 1019.47 1019.74 1019.97 1020.16 1020.31 1020.44 1020.54 1020.63 1020.72 1020.82 1020.93 1021.07 1021.22 1021.40 1021.58 1021.77 1021.95 1022.11 1022.26 1022.38 1022.48
1007.34 1007.56 1007.90 1008.36 1008.92 1009.56 1010.28 1011.05 1011.83 1012.61 1013.37 1014.08 1014.74 1015.35 1015.90 1016.41 1016.89 1017.33 1017.76 1018.17 1018.56 1018.94 1019.29 1019.60 1019.87 1020.09 1020.26 1020.38 1020.47 1020.53 1020.57 1020.62 1020.68 1020.76 1020.87 1021.00 1021.16 1021.34 1021.52 1021.71 1021.89 1022.07 1022.24
1006.75 1006.95 1007.25 1007.66 1008.18 1008.78 1009.47 1010.21 1011.00 1011.79 1012.58 1013.34 1014.06 1014.72 1015.34 1015.90 1016.43 1016.93 1017.40 1017.86 1018.29 1018.71 1019.10 1019.46 1019.76 1020.01 1020.19 1020.32 1020.40 1020.44 1020.45 1020.45 1020.46 1020.49 1020.54 1020.62 1020.74 1020.88 1021.05 1021.24 1021.45 1021.66 1021.88
1006.14 1006.33 1006.61 1006.99 1007.47 1008.03 1008.68 1009.39 1010.16 1010.95 1011.76 1012.55 1013.31 1014.04 1014.71 1015.34 1015.92 1016.47 1016.98 1017.48 1017.95 1018.40 1018.83 1019.21 1019.54 1019.82 1020.03 1020.18 1020.26 1020.30 1020.31 1020.29 1020.27 1020.25 1020.26 1020.29 1020.35 1020.45 1020.58 1020.75 1020.95 1021.18 1021.44
1005.46 1005.68 1005.98 1006.35 1006.80 1007.33 1007.94 1008.61 1009.35 1010.13 1010.94 1011.74 1012.54 1013.30 1014.02 1014.70 1015.32 1015.91 1016.46 1016.98 1017.48 1017.95 1018.39 1018.80 1019.15 1019.46 1019.71 1019.89 1020.02 1020.09 1020.12 1020.11 1020.09 1020.06 1020.03 1020.02 1020.03 1020.07 1020.15 1020.28 1020.45 1020.67 1020.93
1004.71 1004.98 1005.31 1005.70 1006.16 1006.67 1007.25 1007.89 1008.60 1009.35 1010.14 1010.94 1011.74 1012.52 1013.27 1013.98 1014.63 1015.24 1015.81 1016.34 1016.84 1017.32 1017.77 1018.19 1018.57 1018.91 1019.20 1019.44 1019.63 1019.77 1019.85 1019.89 1019.90 1019.88 1019.85 1019.81 1019.78 1019.77 1019.79 1019.86 1019.99 1020.17 1020.41
1003.86 1004.20 1004.59 1005.03 1005.51 1006.03 1006.60 1007.22 1007.90 1008.62 1009.38 1010.17 1010.95 1011.74 1012.49 1013.20 1013.86 1014.47 1015.04 1015.57 1016.07 1016.54 1016.98 1017.41 1017.82 1018.20 1018.55 1018.86 1019.12 1019.34 1019.51 1019.63 1019.70 1019.72 1019.70 1019.66 1019.61 1019.55 1019.52 1019.53 1019.60 1019.73 1019.92
1002.89 1003.32 1003.79 1004.30 1004.83 1005.38 1005.96 1006.58 1007.24 1007.93 1008.67 1009.43 1010.20 1010.96 1011.70 1012.41 1013.06 1013.67 1014.23 1014.74 1015.22 1015.68 1016.12 1016.56 1016.98 1017.40 1017.80 1018.18 1018.53 1018.85 1019.11 1019.32 1019.46 1019.55 1019.57 1019.55 1019.49 1019.42 1019.35 1019.30 1019.31 1019.38 1019.52
1001.84 1002.34 1002.90 1003.49 1004.09 1004.69 1005.30 1005.94 1006.59 1007.28 1007.99 1008.73 1009.48 1010.23 1010.96 1011.65 1012.30 1012.89 1013.44 1013.94 1014.41 1014.86 1015.30 1015.73 1016.17 1016.61 1017.06 1017.50 1017.92 1018.32 1018.67 1018.96 1019.19 1019.34 1019.42 1019.44 1019.40 1019.32 1019.23 1019.16 1019.12 1019.13 1019.21
1000.75 1001.32 1001.96 1002.62 1003.29 1003.95 1004.61 1005.27 1005.95 1006.64 1007.35 1008.08 1008.82 1009.56 1010.28 1010.97 1011.61 1012.20 1012.75 1013.24 1013.71 1014.15 1014.58 1015.02 1015.46 1015.92 1016.39 1016.87 1017.34 1017.79 1018.20 1018.57 1018.86 1019.08 1019.22 1019.28 1019.28 1019.22 1019.14 1019.06 1018.99 1018.97 1019.01
Thickness
5741 5739 5738 5738 5738 5738 5737 5737 5736 5735 5735 5734 5734 5733 5733 5733 5733 5733 5734 5734 5734 5734 5734 5733 5732 5731 5730 5728 5727 5726 5725 5724 5723 5722 5721 5720 5720 5718 5717 5716 5715 5713 5712
5739 5737 5736 5735 5735 5735 5734 5733 5733 5732 5731 5731 5730 5730 5730 5730 5731 5731 5731 5731 5731 5731 5731 5730 5729 5728 5727 5726 5725 5724 5723 5722 5721 5720 5719 5718 5717 5716 5715 5714 5712 5711 5709
5738 5735 5734 5733 5732 5732 5731 5731 5730 5729 5728 5728 5728 5728 5728 5728 5728 5728 5728 5728 5728 5728 5728 5728 5727 5726 5726 5724 5723 5722 5721 5720 5719 5719 5717 5716 5715 5714 5713 5712 5711 5709 5707
5736 5734 5732 5731 5730 5729 5729 5727 5726 5725 5724 5724 5724 5725 5725 5725 5726 5726 5726 5726 5726 5725 5726 5725 5725 5724 5724 5723 5722 5721 5719 5718 5718 5716 5715 5714 5713 5712 5711 5709 5708 5707 5705
5735 5733 5731 5729 5728 5726 5725 5724 5722 5722 5720 5720 5721 5721 5722 5723 5723 5723 5723 5723 5723 5723 5723 5723 5722 5721 5721 5720 5720 5719 5718 5717 5716 5715 5713 5712 5710 5709 5708 5707 5705 5704 5703
5734 5732 5729 5728 5726 5724 5722 5721 5719 5719 5717 5717 5718 5718 5718 5719 5719 5720 5720 5720 5720 5720 5720 5720 5719 5718 5718 5717 5717 5717 5716 5714 5713 5712 5711 5709 5708 5706 5705 5704 5703 5702 5700
5732 5730 5729 5726 5724 5722 5720 5719 5717 5716 5714 5714 5713 5712 5714 5716 5716 5717 5717 5717 5717 5717 5717 5716 5716 5715 5715 5714 5714 5714 5713 5712 5711 5710 5708 5707 5705 5704 5703 5701 5700 5699 5697
5730 5729 5727 5725 5723 5721 5719 5717 5716 5713 5712 5712 5709 5707 5705 5708 5711 5714 5713 5713 5713 5713 5713 5713 5712 5711 5711 5711 5710 5710 5710 5709 5708 5707 5706 5704 5703 5701 5700 5698 5697 5696 5694
5728 5727 5725 5723 5722 5720 5717 5716 5715 5713 5710 5709 5709 5706 5702 5700 5704 5708 5709 5709 5709 5709 5709 5709 5709 5708 5707 5707 5706 5707 5706 5706 5705 5704 5702 5701 5699 5698 5696 5695 5694 5692 5691
5725 5725 5723 5722 5720 5718 5716 5715 5713 5712 5710 5707 5706 5706 5705 5704 5700 5700 5704 5705 5705 5705 5705 5705 5705 5704 5703 5703 5703 5703 5703 5702 5702 5701 5700 5698 5696 5695 5693 5691 5690 5688 5687
5723 5722 5721 5719 5718 5716 5715 5713 5712 5710 5709 5707 5705 5703 5702 5701 5701 5698 5696 5699 5700 5701 5701 5701 5701 5700 5700 5700 5700 5700 5700 5699 5698 5698 5697 5696 5694 5692 5689 5687 5686 5685 5684
5720 5719 5718 5717 5716 5714 5713 5711 5710 5709 5707 5706 5705 5703 5702 5700 5698 5697 5694 5694 5695 5697 5698 5698 5698 5697 5697 5697 5697 5697 5696 5696 5695 5695 5694 5693 5691 5689 5687 5685 5683 5681 5680
5717 5716 5716 5715 5713 5712 5710 5709 5708 5706 5705 5704 5703 5702 5701 5701 5700 5697 5694 5692 5691 5692 5693 5694 5695 5694 5694 5693 5693 5693 5693 5693 5692 5691 5690 5689 5687 5685 5683 5681 5679 5677 5675
5715 5715 5713 5712 5711 5709 5708 5706 5705 5704 5703 5702 5701 5701 5700 5699 5699 5697 5694 5691 5688 5688 5688 5689 5691 5691 5690 5690 5690 5690 5689 5689 5688 5687 5686 5685 5684 5682 5680 5677 5675 5673 5671
5714 5712 5711 5709 5708 5707 5705 5704 5702 5701 5700 5699 5699 5698 5698 5697 5697 5695 5694 5692 5688 5684 5684 5686 5686 5687 5687 5686 5686 5686 5685 5685 5684 5683 5682 5681 5680 5679 5676 5674 5671 5669 5667
5712 5710 5709 5707 5705 5703 5703 5701 5699 5697 5696 5696 5696 5695 5695 5695 5694 5693 5692 5690 5689 5686 5682 5683 5683 5683 5683 5683 5682 5682 5681 5680 5680 5679 5678 5677 5676 5674 5672 5670 5668 5666 5664
5709 5707 5706 5704 5702 5701 5700 5698 5696 5695 5693 5693 5693 5692 5691 5691 5690 5690 5689 5687 5685 5684 5680 5679 5679 5679 5679 5679 5678 5677 5676 5675 5675 5674 5673 5672 5670 5669 5667 5666 5664 5662 5661
5705 5704 5703 5702 5700 5698 5697 5695 5694 5692 5691 5689 5689 5688 5687 5687 5687 5686 5685 5683 5682 5681 5678 5675 5674 5674 5674 5673 5673 5672 5671 5670 5669 5669 5668 5667 5665 5664 5663 5661 5660 5659 5657
5702 5701 5700 5699 5697 5696 5694 5693 5691 5690 5688 5686 5686 5685 5684 5683 5682 5681 5680 5679 5678 5677 5675 5672 5669 5668 5668 5667 5667 5666 5666 5664 5664 5663 5662 5661 5660 5659 5658 5657 5656 5655 5654
5697 5697 5696 5695 5694 5692 5691 5689 5688 5686 5684 5683 5682 5681 5680 5679 5679 5677 5676 5674 5673 5671 5669 5667 5665 5663 5662 5661 5661 5660 5659 5658 5658 5658 5657 5656 5656 5655 5654 5653 5653 5651 5650
5694 5693 5692 5691 5690 5689 5688 5686 5684 5683 5681 5679 5678 5677 5676 5676 5676 5674 5673 5670 5668 5666 5664 5662 5660 5658 5657 5656 5655 5655 5654 5653 5653 5652 5651 5651 5651 5650 5650 5649 5648 5647 5646
5689 5689 5688 5687 5686 5686 5684 5683 5681 5680 5678 5675 5673 5672 5672 5672 5671 5670 5669 5667 5666 5663 5660 5657 5655 5653 5652 5652 5651 5650 5649 5648 5648 5647 5645 5646 5646 5646 5646 5645 5645 5644 5642
5684 5684 5683 5683 5682 5681 5680 5679 5677 5676 5674 5671 5669 5667 5667 5667 5666 5665 5664 5663 5661 5660 5658 5656 5653 5651 5650 5649 5647 5646 5644 5643 5643 5642 5640 5641 5641 5641 5642 5642 5641 5640 5639
5679 5679 5678 5678 5677 5677 5676 5675 5673 5671 5670 5667 5666 5664 5662 5662 5662 5660 5659 5658 5656 5655 5654 5652 5651 5649 5648 5646 5644 5642 5640 5639 5638 5637 5635 5636 5637 5637 5638 5637 5637 5636 5635
5675 5674 5674 5674 5673 5672 5671 5670 5669 5666 5664 5662 5661 5660 5659 5658 5657 5656 5655 5653 5651 5650 5649 5647 5646 5644 5643 5641 5639 5638 5636 5635 5634 5633 5631 5631 5632 5632 5633 5633 5632 5631 5630
5671 5670 5669 5669 5668 5667 5666 5665 5663 5662 5659 5658 5656 5655 5654 5653 5652 5651 5650 5648 5646 5644 5643 5642 5640 5639 5637 5636 5635 5633 5632 5631 5629 5629 5628 5626 5627 5626 5628 5629 5628 5627 5625